FW3095 Weather Reports


Display with metric or nautical units.
time (UTC)temp
F
wind
direction
speed
MPH
gust
MPH
rain 1hr
in
rain 24hr
in
rain mn
in
humidity
%
barometer
mb
20260904190059 92 96 1.0 5.0 0.00 0.01 0.01 71 986.7
20260904184605 92 297 0.0 4.0 0.00 0.01 0.01 72 987.0
20260904183053 91 299 3.0 7.0 0.00 0.01 0.01 71 987.2
20260904181551 90 292 4.0 8.0 0.00 0.01 0.01 72 987.2
20260904174548 88 252 4.0 8.0 0.00 0.01 0.01 79 987.3
20260904173050 84 231 2.0 6.0 0.00 0.01 0.01 94 987.0
20260904171550 82 231 1.0 4.0 0.00 0.01 0.01 98 987.1
20260904170045 81 139 1.0 5.0 0.01 0.01 0.01 100 987.2
20260904164545 77 225 0.0 4.0 0.01 0.01 0.01 100 987.5
20260904163053 76 207 0.0 1.0 0.01 0.01 0.01 98 987.2
20260904161544 77 215 4.0 11.0 0.01 0.01 0.01 89 987.6
20260904160043 87 265 7.0 14.0 0.00 0.00 0.00 77 987.8
20260904154541 90 242 4.0 10.0 0.00 0.00 0.00 76 987.6
20260904153048 89 217 4.0 7.0 0.00 0.00 0.00 77 987.4
20260904151536 88 240 4.0 9.0 0.00 0.00 0.00 74 987.2
20260904150035 87 218 4.0 9.0 0.00 0.00 0.00 76 987.3
20260904144532 87 235 3.0 9.0 0.00 0.00 0.00 79 987.5
20260904143029 86 280 2.0 9.0 0.00 0.00 0.00 78 987.4
20260904141526 86 199 3.0 9.0 0.00 0.00 0.00 81 987.3
20260904140023 84 250 2.0 6.0 0.00 0.00 0.00 82 987.5
20260904134523 83 248 4.0 9.0 0.00 0.00 0.00 81 987.4
20260904133017 82 237 3.0 6.0 0.00 0.00 0.00 83 987.4
20260904131514 82 237 2.0 5.0 0.00 0.00 0.00 84 987.2
20260904130012 82 236 1.0 3.0 0.00 0.00 0.00 85 987.2
20260904124509 80 241 0.0 2.0 0.00 0.00 0.00 88 987.2
20260904123005 78 241 0.0 0.0 0.00 0.00 0.00 91 987.1
20260904121600 76 241 0.0 0.0 0.00 0.00 0.00 94 987.0
20260904120100 74 241 0.0 0.0 0.00 0.00 0.00 96 986.9
20260904114553 0 0.0 0.0 0.00 0.00 0.00 986.7
20260904113049 0 0.0 0.0 0.00 0.00 0.00 986.4
20260904111553 0 0.0 0.0 0.00 0.00 0.00 986.2
20260904110042 0 0.0 0.0 0.00 0.00 0.00 985.7
20260904104538 0 120 0.0 0.0 0.00 0.00 0.00 985.8
20260904103036 72 115 0.0 0.0 0.00 0.00 0.00 97 985.8
20260904101531 72 115 0.0 0.0 0.00 0.00 0.00 96 985.8
20260904100029 73 115 0.0 0.0 0.00 0.00 0.00 96 985.9
20260904094530 73 115 0.0 0.0 0.00 0.00 0.00 95 986.0
20260904093027 74 115 0.0 0.0 0.00 0.00 0.00 94 985.7
20260904091532 74 115 0.0 0.0 0.00 0.00 0.00 94 985.8
20260904090026 74 115 0.0 0.0 0.00 0.00 0.00 94 985.6
20260904084526 75 115 0.0 0.0 0.00 0.00 0.00 94 985.5
20260904083025 75 115 0.0 2.0 0.00 0.00 0.00 95 985.5
20260904081525 75 139 0.0 0.0 0.00 0.00 0.00 95 985.5
20260904080021 75 155 2.0 5.0 0.00 0.00 0.00 96 985.5
20260904074522 74 142 1.0 4.0 0.00 0.00 0.00 96 985.8
20260904073016 74 165 0.0 2.0 0.00 0.00 0.00 96 985.9
20260904071527 74 148 1.0 2.0 0.00 0.00 0.00 97 986.0
20260904070005 74 146 0.0 0.0 0.00 0.00 0.00 97 986.4
20260904064600 74 146 0.0 0.0 0.00 0.00 0.00 97 986.5
20260904063108 74 146 0.0 0.0 0.00 0.00 0.00 97 986.5
20260904061559 74 146 0.0 0.0 0.00 0.00 0.00 96 986.6
20260904060107 74 146 0.0 0.0 0.00 0.00 0.00 97 986.7
20260904054543 74 146 0.0 0.0 0.00 0.00 0.00 97 986.7
20260904053040 74 146 0.0 0.0 0.00 0.00 0.00 97 986.7
20260904051535 74 120 0.0 1.0 0.00 0.00 0.00 97 987.1
20260904050032 74 120 0.0 1.0 0.00 0.00 0.00 98 987.1
20260904044539 73 120 0.0 0.0 0.00 0.00 0.00 98 987.0
20260904043024 73 102 0.0 0.0 0.00 0.00 0.00 97 987.0
20260904041521 73 102 0.0 0.0 0.00 0.00 0.00 97 986.9
20260904040017 74 102 0.0 0.0 0.00 0.00 0.00 97 986.7
20260904034517 73 102 0.0 2.0 0.00 0.00 0.00 97 986.6
20260904033015 74 132 0.0 0.0 0.00 0.00 0.00 96 986.6
20260904031515 74 132 0.0 1.0 0.00 0.00 0.00 95 986.7
20260904030014 75 132 0.0 1.0 0.00 0.00 0.00 95 986.8
20260904024513 75 143 1.0 3.0 0.00 0.00 0.00 95 986.8
20260904023013 75 103 0.0 2.0 0.00 0.00 0.00 96 986.8
20260904021518 75 114 0.0 0.0 0.00 0.00 0.00 95 986.8
20260904020013 75 114 0.0 0.0 0.00 0.00 0.00 94 986.7
20260904014520 76 87 0.0 0.0 0.00 0.00 0.00 92 986.6
20260904013012 76 86 0.0 0.0 0.00 0.00 0.00 92 986.5
20260904011525 76 86 0.0 0.0 0.00 0.00 0.00 90 986.6
20260904010013 77 87 0.0 0.0 0.00 0.00 0.00 90 986.3
20260904004510 78 87 0.0 1.0 0.00 0.00 0.00 87 986.5
20260904003008 79 85 0.0 3.0 0.00 0.00 0.00 86 986.4
20260904001507 81 167 0.0 2.0 0.00 0.00 0.00 85 986.2
20260904000007 83 167 0.0 2.0 0.00 0.00 0.00 79 985.8
20260903234506 83 309 0.0 5.0 0.00 0.00 0.00 76 985.9
20260903233005 84 272 3.0 7.0 0.00 0.00 0.00 69 986.2
20260903231504 84 303 4.0 15.0 0.00 0.00 0.00 63 986.3
20260903230003 86 288 10.0 18.0 0.00 0.00 0.00 70 985.8
20260903224502 92 239 2.0 6.0 0.00 0.00 0.00 73 985.5
20260903223002 92 236 3.0 6.0 0.00 0.00 0.00 70 985.2
20260903221502 92 243 3.0 8.0 0.00 0.00 0.00 71 985.1
20260903220001 93 268 3.0 8.0 0.00 0.00 0.00 70 985.2
20260903214601 93 233 4.0 7.0 0.00 0.00 0.00 69 985.3
20260903213101 93 243 3.0 10.0 0.00 0.00 0.00 68 985.3
20260903211618 93 229 5.0 9.0 0.00 0.00 0.00 67 985.3
20260903204558 93 230 4.0 11.0 0.00 0.00 0.00 68 985.3
20260903203057 93 255 6.0 11.0 0.00 0.00 0.00 67 985.4
20260903201556 93 242 3.0 10.0 0.00 0.00 0.00 67 985.2
20260903200055 93 242 5.0 11.0 0.00 0.00 0.00 68 985.5
20260903194553 94 225 3.0 9.0 0.00 0.00 0.00 67 985.8
20260903193049 94 227 2.0 8.0 0.00 0.00 0.00 69 986.2
20260903191547 93 278 5.0 12.0 0.00 0.00 0.00 67 986.4